| time (UTC) | temp F | wind direction | speed MPH | gust MPH | rain 1hr in | rain 24hr in | rain mn in | humidity % | barometer mb |
| 20260831014050 | 72 | 273 | 2.0 | 13.0 | 0.00 | 0.00 | 0.00 | 34 | 1014.4 |
| 20260831013551 | 72 | 191 | 3.0 | 13.0 | 0.00 | 0.00 | 0.00 | 35 | 1014.4 |
| 20260831013105 | 72 | 257 | 3.0 | 10.0 | 0.00 | 0.00 | 0.00 | 35 | 1014.5 |
| 20260831012548 | 72 | 191 | 4.0 | 16.0 | 0.00 | 0.00 | 0.00 | 35 | 1014.5 |
| 20260831012048 | 72 | 191 | 7.0 | 16.0 | 0.00 | 0.00 | 0.00 | 34 | 1014.5 |
| 20260831011554 | 72 | 254 | 6.0 | 14.0 | 0.00 | 0.00 | 0.00 | 35 | 1014.5 |
| 20260831011048 | 72 | 284 | 5.0 | 16.0 | 0.00 | 0.00 | 0.00 | 35 | 1014.6 |
| 20260831010548 | 72 | 265 | 6.0 | 23.0 | 0.00 | 0.00 | 0.00 | 35 | 1014.5 |
| 20260831010115 | 72 | 318 | 6.0 | 23.0 | 0.00 | 0.00 | 0.00 | 35 | 1014.6 |
| 20260831005548 | 72 | 267 | 8.0 | 13.0 | 0.00 | 0.00 | 0.00 | 34 | 1014.6 |
| 20260831005047 | 72 | 250 | 6.0 | 13.0 | 0.00 | 0.00 | 0.00 | 34 | 1014.7 |
| 20260831004547 | 72 | 269 | 3.0 | 11.0 | 0.00 | 0.00 | 0.00 | 32 | 1014.7 |
| 20260831004046 | 72 | 191 | 3.0 | 14.0 | 0.00 | 0.00 | 0.00 | 35 | 1014.7 |
| 20260831003546 | 72 | 191 | 3.0 | 13.0 | 0.00 | 0.00 | 0.00 | 35 | 1014.7 |
| 20260831003046 | 73 | 258 | 4.0 | 18.0 | 0.00 | 0.00 | 0.00 | 34 | 1014.7 |
| 20260831002545 | 73 | 250 | 4.0 | 18.0 | 0.00 | 0.00 | 0.00 | 34 | 1014.7 |
| 20260831002045 | 73 | 272 | 5.0 | 16.0 | 0.00 | 0.00 | 0.00 | 35 | 1014.8 |
| 20260831001545 | 73 | 317 | 5.0 | 17.0 | 0.00 | 0.00 | 0.00 | 36 | 1014.9 |
| 20260831001046 | 73 | 344 | 3.0 | 17.0 | 0.00 | 0.00 | 0.00 | 33 | 1014.8 |
| 20260831000545 | 74 | 191 | 6.0 | 16.0 | 0.00 | 0.00 | 0.00 | 33 | 1014.8 |
| 20260830235544 | 73 | 256 | 6.0 | 17.0 | 0.00 | 0.00 | 0.00 | 33 | 1014.8 |
| 20260830235045 | 74 | 232 | 7.0 | 17.0 | 0.00 | 0.00 | 0.00 | 32 | 1014.7 |
| 20260830234544 | 74 | 264 | 7.0 | 16.0 | 0.00 | 0.00 | 0.00 | 33 | 1014.8 |
| 20260830234042 | 74 | 242 | 6.0 | 15.0 | 0.00 | 0.00 | 0.00 | 33 | 1014.9 |
| 20260830233542 | 74 | 191 | 8.0 | 15.0 | 0.00 | 0.00 | 0.00 | 33 | 1015.0 |
| 20260830233042 | 74 | 191 | 7.0 | 17.0 | 0.00 | 0.00 | 0.00 | 32 | 1015.1 |
| 20260830232545 | 74 | 246 | 7.0 | 17.0 | 0.00 | 0.00 | 0.00 | 32 | 1015.1 |
| 20260830232043 | 75 | 265 | 8.0 | 17.0 | 0.00 | 0.00 | 0.00 | 32 | 1015.2 |
| 20260830231543 | 75 | 273 | 6.0 | 19.0 | 0.00 | 0.00 | 0.00 | 33 | 1015.2 |
| 20260830231040 | 75 | 252 | 9.0 | 19.0 | 0.00 | 0.00 | 0.00 | 33 | 1015.3 |
| 20260830230539 | 74 | 238 | 6.0 | 17.0 | 0.00 | 0.00 | 0.00 | 34 | 1015.4 |
| 20260830230050 | 75 | 267 | 7.0 | 18.0 | 0.00 | 0.00 | 0.00 | 34 | 1015.4 |
| 20260830225538 | 75 | 248 | 4.0 | 18.0 | 0.00 | 0.00 | 0.00 | 34 | 1015.4 |
| 20260830225038 | 75 | 257 | 5.0 | 16.0 | 0.00 | 0.00 | 0.00 | 34 | 1015.4 |
| 20260830224537 | 75 | 253 | 5.0 | 14.0 | 0.00 | 0.00 | 0.00 | 36 | 1015.5 |
| 20260830224036 | 75 | 252 | 6.0 | 15.0 | 0.00 | 0.00 | 0.00 | 34 | 1015.6 |
| 20260830223536 | 75 | 248 | 10.0 | 19.0 | 0.00 | 0.00 | 0.00 | 35 | 1015.8 |
| 20260830223043 | 75 | 267 | 10.0 | 20.0 | 0.00 | 0.00 | 0.00 | 37 | 1015.8 |
| 20260830222534 | 75 | 244 | 8.0 | 18.0 | 0.00 | 0.00 | 0.00 | 37 | 1016.0 |
| 20260830222034 | 75 | 247 | 10.0 | 21.0 | 0.00 | 0.00 | 0.00 | 35 | 1016.0 |
| 20260830221536 | 74 | 253 | 11.0 | 20.0 | 0.00 | 0.00 | 0.00 | 38 | 1016.1 |
| 20260830221032 | 74 | 259 | 14.0 | 20.0 | 0.00 | 0.00 | 0.00 | 37 | 1016.1 |
| 20260830220531 | 74 | 191 | 11.0 | 20.0 | 0.00 | 0.00 | 0.00 | 36 | 1016.2 |
| 20260830220033 | 74 | 234 | 11.0 | 20.0 | 0.00 | 0.00 | 0.00 | 36 | 1016.2 |
| 20260830215531 | 74 | 239 | 11.0 | 23.0 | 0.00 | 0.00 | 0.00 | 38 | 1016.3 |
| 20260830215033 | 74 | 252 | 13.0 | 24.0 | 0.00 | 0.00 | 0.00 | 37 | 1016.3 |
| 20260830214532 | 74 | 252 | 10.0 | 23.0 | 0.00 | 0.00 | 0.00 | 35 | 1016.4 |
| 20260830214028 | 74 | 257 | 14.0 | 22.0 | 0.00 | 0.00 | 0.00 | 37 | 1016.5 |
| 20260830213526 | 74 | 260 | 14.0 | 22.0 | 0.00 | 0.00 | 0.00 | 35 | 1016.6 |
| 20260830213034 | 74 | 246 | 13.0 | 25.0 | 0.00 | 0.00 | 0.00 | 36 | 1016.7 |
| 20260830212526 | 74 | 243 | 13.0 | 22.0 | 0.00 | 0.00 | 0.00 | 38 | 1016.7 |
| 20260830212025 | 74 | 271 | 15.0 | 24.0 | 0.00 | 0.00 | 0.00 | 38 | 1016.8 |
| 20260830211524 | 73 | 264 | 14.0 | 23.0 | 0.00 | 0.00 | 0.00 | 38 | 1016.8 |
| 20260830211024 | 73 | 244 | 13.0 | 22.0 | 0.00 | 0.00 | 0.00 | 38 | 1016.8 |
| 20260830210522 | 74 | 240 | 11.0 | 23.0 | 0.00 | 0.00 | 0.00 | 38 | 1016.8 |
| 20260830210027 | 73 | 257 | 9.0 | 23.0 | 0.00 | 0.00 | 0.00 | 39 | 1016.9 |
| 20260830205521 | 73 | 276 | 11.0 | 24.0 | 0.00 | 0.00 | 0.00 | 39 | 1016.9 |
| 20260830205021 | 73 | 252 | 12.0 | 24.0 | 0.00 | 0.00 | 0.00 | 39 | 1016.9 |
| 20260830204521 | 73 | 276 | 9.0 | 21.0 | 0.00 | 0.00 | 0.00 | 39 | 1017.1 |
| 20260830204019 | 72 | 250 | 9.0 | 27.0 | 0.00 | 0.00 | 0.00 | 40 | 1017.1 |
| 20260830203519 | 73 | 260 | 10.0 | 27.0 | 0.00 | 0.00 | 0.00 | 39 | 1017.2 |
| 20260830203018 | 72 | 191 | 10.0 | 22.0 | 0.00 | 0.00 | 0.00 | 40 | 1017.3 |
| 20260830202517 | 72 | 210 | 11.0 | 22.0 | 0.00 | 0.00 | 0.00 | 40 | 1017.4 |
| 20260830202018 | 72 | 251 | 10.0 | 25.0 | 0.00 | 0.00 | 0.00 | 40 | 1017.5 |
| 20260830201516 | 72 | 271 | 10.0 | 25.0 | 0.00 | 0.00 | 0.00 | 41 | 1017.6 |
| 20260830201016 | 72 | 269 | 10.0 | 22.0 | 0.00 | 0.00 | 0.00 | 41 | 1017.6 |
| 20260830200515 | 72 | 242 | 13.0 | 24.0 | 0.00 | 0.00 | 0.00 | 42 | 1017.6 |
| 20260830200015 | 72 | 265 | 12.0 | 24.0 | 0.00 | 0.00 | 0.00 | 40 | 1017.7 |
| 20260830195514 | 72 | 275 | 14.0 | 24.0 | 0.00 | 0.00 | 0.00 | 40 | 1017.8 |
| 20260830195014 | 72 | 232 | 12.0 | 24.0 | 0.00 | 0.00 | 0.00 | 43 | 1017.9 |
| 20260830194517 | 71 | 244 | 13.0 | 20.0 | 0.00 | 0.00 | 0.00 | 41 | 1017.9 |
| 20260830194011 | 71 | 231 | 13.0 | 20.0 | 0.00 | 0.00 | 0.00 | 41 | 1017.9 |
| 20260830193513 | 71 | 251 | 10.0 | 23.0 | 0.00 | 0.00 | 0.00 | 42 | 1017.9 |
| 20260830193012 | 71 | 267 | 10.0 | 23.0 | 0.00 | 0.00 | 0.00 | 42 | 1018.0 |
| 20260830192511 | 71 | 240 | 10.0 | 17.0 | 0.00 | 0.00 | 0.00 | 45 | 1018.2 |
| 20260830192009 | 70 | 245 | 9.0 | 16.0 | 0.00 | 0.00 | 0.00 | 44 | 1018.2 |
| 20260830191508 | 70 | 260 | 8.0 | 15.0 | 0.00 | 0.00 | 0.00 | 42 | 1018.3 |
| 20260830191010 | 70 | 323 | 8.0 | 19.0 | 0.00 | 0.00 | 0.00 | 44 | 1018.4 |
| 20260830190507 | 70 | 269 | 11.0 | 19.0 | 0.00 | 0.00 | 0.00 | 43 | 1018.4 |
| 20260830190010 | 70 | 233 | 10.0 | 19.0 | 0.00 | 0.00 | 0.00 | 43 | 1018.4 |
| 20260830185506 | 69 | 259 | 12.0 | 19.0 | 0.00 | 0.00 | 0.00 | 43 | 1018.5 |
| 20260830185005 | 68 | 271 | 10.0 | 21.0 | 0.00 | 0.00 | 0.00 | 45 | 1018.6 |
| 20260830184504 | 69 | 271 | 11.0 | 21.0 | 0.00 | 0.00 | 0.00 | 44 | 1018.7 |
| 20260830184003 | 68 | 241 | 9.0 | 18.0 | 0.00 | 0.00 | 0.00 | 41 | 1018.8 |
| 20260830183504 | 69 | 267 | 11.0 | 22.0 | 0.00 | 0.00 | 0.00 | 42 | 1018.8 |
| 20260830183002 | 69 | 235 | 13.0 | 22.0 | 0.00 | 0.00 | 0.00 | 43 | 1018.8 |
| 20260830182602 | 69 | 251 | 9.0 | 20.0 | 0.00 | 0.00 | 0.00 | 45 | 1018.9 |
| 20260830182058 | 68 | 244 | 14.0 | 20.0 | 0.00 | 0.00 | 0.00 | 45 | 1019.0 |
| 20260830181558 | 68 | 272 | 9.0 | 19.0 | 0.00 | 0.00 | 0.00 | 44 | 1018.9 |
| 20260830181059 | 68 | 243 | 10.0 | 17.0 | 0.00 | 0.00 | 0.00 | 45 | 1018.9 |
| 20260830180557 | 68 | 237 | 12.0 | 20.0 | 0.00 | 0.00 | 0.00 | 45 | 1019.0 |
| 20260830180053 | 67 | 260 | 12.0 | 20.0 | 0.00 | 0.00 | 0.00 | 47 | 1019.0 |
| 20260830175552 | 66 | 231 | 13.0 | 21.0 | 0.00 | 0.00 | 0.00 | 46 | 1019.0 |
| 20260830175051 | 66 | 241 | 13.0 | 21.0 | 0.00 | 0.00 | 0.00 | 48 | 1019.0 |
| 20260830174551 | 66 | 261 | 12.0 | 21.0 | 0.00 | 0.00 | 0.00 | 49 | 1019.0 |
| 20260830174048 | 65 | 258 | 12.0 | 24.0 | 0.00 | 0.00 | 0.00 | 50 | 1019.0 |
| 20260830173547 | 65 | 262 | 12.0 | 24.0 | 0.00 | 0.00 | 0.00 | 48 | 1019.0 |
| 20260830173047 | 64 | 244 | 12.0 | 24.0 | 0.00 | 0.00 | 0.00 | 51 | 1019.0 |
| 20260830172545 | 64 | 249 | 11.0 | 22.0 | 0.00 | 0.00 | 0.00 | 55 | 1019.0 |
| 20260830172048 | 64 | 246 | 14.0 | 22.0 | 0.00 | 0.00 | 0.00 | 52 | 1019.0 |
| 20260830171547 | 64 | 269 | 14.0 | 22.0 | 0.00 | 0.00 | 0.00 | 55 | 1019.0 |
| 20260830171043 | 64 | 219 | 11.0 | 22.0 | 0.00 | 0.00 | 0.00 | 54 | 1019.1 |
| 20260830170543 | 64 | 278 | 12.0 | 21.0 | 0.00 | 0.00 | 0.00 | 55 | 1019.1 |
| 20260830170042 | 63 | 242 | 12.0 | 22.0 | 0.00 | 0.00 | 0.00 | 58 | 1019.1 |
| 20260830165541 | 63 | 265 | 10.0 | 22.0 | 0.00 | 0.00 | 0.00 | 59 | 1019.2 |
| 20260830165039 | 62 | 234 | 13.0 | 21.0 | 0.00 | 0.00 | 0.00 | 59 | 1019.2 |
| 20260830164538 | 62 | 246 | 11.0 | 21.0 | 0.00 | 0.00 | 0.00 | 61 | 1019.4 |
| 20260830164037 | 62 | 254 | 12.0 | 21.0 | 0.00 | 0.00 | 0.00 | 63 | 1019.4 |
| 20260830163537 | 61 | 238 | 12.0 | 21.0 | 0.00 | 0.00 | 0.00 | 63 | 1019.5 |
| 20260830163034 | 61 | 256 | 11.0 | 19.0 | 0.00 | 0.00 | 0.00 | 64 | 1019.5 |
| 20260830162533 | 60 | 254 | 12.0 | 18.0 | 0.00 | 0.00 | 0.00 | 63 | 1019.6 |
| 20260830162033 | 60 | 256 | 11.0 | 18.0 | 0.00 | 0.00 | 0.00 | 64 | 1019.6 |
| 20260830161539 | 60 | 266 | 10.0 | 18.0 | 0.00 | 0.00 | 0.00 | 64 | 1019.7 |
| 20260830161030 | 60 | 248 | 5.0 | 17.0 | 0.00 | 0.00 | 0.00 | 65 | 1019.8 |
| 20260830160529 | 59 | 250 | 9.0 | 17.0 | 0.00 | 0.00 | 0.00 | 66 | 1019.9 |
| 20260830160028 | 59 | 239 | 7.0 | 14.0 | 0.00 | 0.00 | 0.00 | 66 | 1020.0 |
| 20260830155527 | 59 | 267 | 6.0 | 15.0 | 0.00 | 0.00 | 0.00 | 66 | 1020.1 |
| 20260830155026 | 58 | 269 | 8.0 | 15.0 | 0.00 | 0.00 | 0.00 | 67 | 1020.1 |
| 20260830154525 | 58 | 240 | 3.0 | 11.0 | 0.00 | 0.00 | 0.00 | 67 | 1020.2 |
| 20260830154027 | 58 | 191 | 5.0 | 15.0 | 0.00 | 0.00 | 0.00 | 68 | 1020.3 |
| 20260830153524 | 58 | 250 | 5.0 | 15.0 | 0.00 | 0.00 | 0.00 | 67 | 1020.3 |
| 20260830153024 | 58 | 275 | 5.0 | 13.0 | 0.00 | 0.00 | 0.00 | 68 | 1020.2 |
| 20260830152525 | 57 | 246 | 4.0 | 13.0 | 0.00 | 0.00 | 0.00 | 69 | 1020.3 |
| 20260830152021 | 57 | 263 | 6.0 | 13.0 | 0.00 | 0.00 | 0.00 | 69 | 1020.2 |
| 20260830151520 | 57 | 252 | 3.0 | 18.0 | 0.00 | 0.00 | 0.00 | 70 | 1020.2 |
| 20260830151019 | 57 | 229 | 5.0 | 18.0 | 0.00 | 0.00 | 0.00 | 70 | 1020.3 |
| 20260830150518 | 56 | 310 | 4.0 | 9.0 | 0.00 | 0.00 | 0.00 | 71 | 1020.3 |
| 20260830150017 | 56 | 241 | 1.0 | 7.0 | 0.00 | 0.00 | 0.00 | 71 | 1020.3 |
| 20260830145516 | 55 | 23 | 2.0 | 10.0 | 0.00 | 0.00 | 0.00 | 72 | 1020.3 |
| 20260830145015 | 55 | 250 | 2.0 | 10.0 | 0.00 | 0.00 | 0.00 | 73 | 1020.4 |
| 20260830144517 | 55 | 274 | 1.0 | 9.0 | 0.00 | 0.00 | 0.00 | 73 | 1020.4 |
| 20260830144014 | 55 | 351 | 1.0 | 12.0 | 0.00 | 0.00 | 0.00 | 73 | 1020.4 |
| 20260830143514 | 55 | 258 | 4.0 | 12.0 | 0.00 | 0.00 | 0.00 | 74 | 1020.5 |
| 20260830143015 | 55 | 191 | 4.0 | 11.0 | 0.00 | 0.00 | 0.00 | 74 | 1020.4 |
| 20260830142512 | 54 | 250 | 4.0 | 9.0 | 0.00 | 0.00 | 0.00 | 75 | 1020.4 |
| 20260830142011 | 54 | 263 | 4.0 | 9.0 | 0.00 | 0.00 | 0.00 | 75 | 1020.4 |
| 20260830141510 | 54 | 257 | 5.0 | 10.0 | 0.00 | 0.00 | 0.00 | 75 | 1020.4 |
| 20260830141010 | 53 | 266 | 4.0 | 10.0 | 0.00 | 0.00 | 0.00 | 76 | 1020.3 |
| 20260830140509 | 53 | 256 | 3.0 | 11.0 | 0.00 | 0.00 | 0.00 | 76 | 1020.3 |
| 20260830140009 | 53 | 261 | 4.0 | 11.0 | 0.00 | 0.00 | 0.00 | 75 | 1020.3 |
| 20260830135507 | 54 | 258 | 5.0 | 11.0 | 0.00 | 0.00 | 0.00 | 75 | 1020.2 |
| 20260830135006 | 54 | 279 | 5.0 | 13.0 | 0.00 | 0.00 | 0.00 | 74 | 1020.2 |
| 20260830134512 | 54 | 242 | 6.0 | 14.0 | 0.00 | 0.00 | 0.00 | 74 | 1020.1 |
| 20260830134005 | 54 | 247 | 6.0 | 14.0 | 0.00 | 0.00 | 0.00 | 74 | 1020.0 |
| 20260830133502 | 54 | 271 | 6.0 | 14.0 | 0.00 | 0.00 | 0.00 | 74 | 1020.0 |
| 20260830133001 | 54 | 265 | 9.0 | 14.0 | 0.00 | 0.00 | 0.00 | 74 | 1020.0 |
| 20260830132600 | 54 | 256 | 7.0 | 14.0 | 0.00 | 0.00 | 0.00 | 75 | 1019.9 |
| 20260830132059 | 54 | 235 | 5.0 | 14.0 | 0.00 | 0.00 | 0.00 | 75 | 1019.8 |
| 20260830131558 | 53 | 247 | 5.0 | 14.0 | 0.00 | 0.00 | 0.00 | 76 | 1019.8 |
| 20260830131057 | 53 | 242 | 4.0 | 9.0 | 0.00 | 0.00 | 0.00 | 76 | 1019.7 |
| 20260830130556 | 53 | 249 | 4.0 | 11.0 | 0.00 | 0.00 | 0.00 | 76 | 1019.7 |
| 20260830130107 | 53 | 244 | 5.0 | 11.0 | 0.00 | 0.00 | 0.00 | 77 | 1019.6 |
| 20260830125555 | 53 | 248 | 4.0 | 10.0 | 0.00 | 0.00 | 0.00 | 76 | 1019.6 |
| 20260830125057 | 53 | 260 | 1.0 | 10.0 | 0.00 | 0.00 | 0.00 | 76 | 1019.6 |
| 20260830124556 | 53 | 276 | 4.0 | 10.0 | 0.00 | 0.00 | 0.00 | 75 | 1019.6 |
| 20260830124054 | 54 | 244 | 4.0 | 10.0 | 0.00 | 0.00 | 0.00 | 75 | 1019.5 |
| 20260830123552 | 54 | 251 | 5.0 | 13.0 | 0.00 | 0.00 | 0.00 | 74 | 1019.5 |
| 20260830123057 | 54 | 279 | 5.0 | 17.0 | 0.00 | 0.00 | 0.00 | 75 | 1019.6 |
| 20260830122652 | 54 | 266 | 7.0 | 17.0 | 0.00 | 0.00 | 0.00 | 75 | 1019.6 |
| 20260830122050 | 54 | 267 | 5.0 | 13.0 | 0.00 | 0.00 | 0.00 | 75 | 1019.6 |
| 20260830121552 | 53 | 275 | 6.0 | 13.0 | 0.00 | 0.00 | 0.00 | 76 | 1019.6 |
| 20260830121050 | 53 | 264 | 1.0 | 13.0 | 0.00 | 0.00 | 0.00 | 75 | 1019.6 |
| 20260830120547 | 54 | 249 | 3.0 | 13.0 | 0.00 | 0.00 | 0.00 | 75 | 1019.5 |
| 20260830120048 | 54 | 266 | 4.0 | 10.0 | 0.00 | 0.00 | 0.00 | 74 | 1019.5 |
| 20260830115548 | 54 | 246 | 0.0 | 9.0 | 0.00 | 0.00 | 0.00 | 74 | 1019.5 |
| 20260830115048 | 54 | 191 | 2.0 | 7.0 | 0.00 | 0.00 | 0.00 | 74 | 1019.5 |
| 20260830114544 | 54 | 280 | 1.0 | 12.0 | 0.00 | 0.00 | 0.00 | 73 | 1019.5 |
| 20260830114045 | 54 | 278 | 2.0 | 12.0 | 0.00 | 0.00 | 0.00 | 73 | 1019.5 |
| 20260830113543 | 54 | 191 | 1.0 | 8.0 | 0.00 | 0.00 | 0.00 | 74 | 1019.3 |
| 20260830113043 | 54 | 269 | 2.0 | 9.0 | 0.00 | 0.00 | 0.00 | 73 | 1019.4 |
| 20260830112544 | 54 | 191 | 1.0 | 12.0 | 0.00 | 0.00 | 0.00 | 74 | 1019.4 |
| 20260830112046 | 54 | 270 | 2.0 | 9.0 | 0.00 | 0.00 | 0.00 | 74 | 1019.4 |
| 20260830111543 | 54 | 258 | 2.0 | 11.0 | 0.00 | 0.00 | 0.00 | 74 | 1019.4 |
| 20260830111045 | 54 | 273 | 5.0 | 11.0 | 0.00 | 0.00 | 0.00 | 73 | 1019.4 |
| 20260830110544 | 54 | 253 | 3.0 | 12.0 | 0.00 | 0.00 | 0.00 | 73 | 1019.4 |
| 20260830110052 | 54 | 191 | 5.0 | 16.0 | 0.00 | 0.00 | 0.00 | 74 | 1019.4 |
| 20260830105543 | 54 | 250 | 3.0 | 16.0 | 0.00 | 0.00 | 0.00 | 73 | 1019.3 |
| 20260830105040 | 54 | 329 | 1.0 | 9.0 | 0.00 | 0.00 | 0.00 | 73 | 1019.3 |
| 20260830104544 | 54 | 191 | 1.0 | 12.0 | 0.00 | 0.00 | 0.00 | 73 | 1019.3 |
| 20260830104039 | 55 | 263 | 3.0 | 13.0 | 0.00 | 0.00 | 0.00 | 73 | 1019.3 |
| 20260830103540 | 55 | 265 | 4.0 | 14.0 | 0.00 | 0.00 | 0.00 | 72 | 1019.4 |
| 20260830103038 | 55 | 191 | 4.0 | 15.0 | 0.00 | 0.00 | 0.00 | 73 | 1019.4 |
| 20260830102538 | 55 | 256 | 4.0 | 13.0 | 0.00 | 0.00 | 0.00 | 72 | 1019.4 |
| 20260830102039 | 55 | 270 | 6.0 | 13.0 | 0.00 | 0.00 | 0.00 | 73 | 1019.3 |
| 20260830101535 | 55 | 237 | 3.0 | 11.0 | 0.00 | 0.00 | 0.00 | 73 | 1019.4 |
| 20260830101036 | 55 | 245 | 5.0 | 10.0 | 0.00 | 0.00 | 0.00 | 72 | 1019.3 |
| 20260830100536 | 55 | 244 | 5.0 | 13.0 | 0.00 | 0.00 | 0.00 | 73 | 1019.3 |
| 20260830100047 | 55 | 253 | 4.0 | 12.0 | 0.00 | 0.00 | 0.00 | 73 | 1019.3 |
| 20260830095535 | 55 | 243 | 5.0 | 12.0 | 0.00 | 0.00 | 0.00 | 73 | 1019.3 |
| 20260830095035 | 54 | 312 | 3.0 | 13.0 | 0.00 | 0.00 | 0.00 | 72 | 1019.3 |
| 20260830094533 | 54 | 269 | 4.0 | 12.0 | 0.00 | 0.00 | 0.00 | 72 | 1019.3 |
| 20260830094030 | 54 | 254 | 3.0 | 8.0 | 0.00 | 0.00 | 0.00 | 72 | 1019.3 |
| 20260830093529 | 55 | 239 | 3.0 | 9.0 | 0.00 | 0.00 | 0.00 | 72 | 1019.3 |
| 20260830093031 | 55 | 240 | 4.0 | 9.0 | 0.00 | 0.00 | 0.00 | 72 | 1019.4 |
| 20260830092529 | 55 | 248 | 2.0 | 7.0 | 0.00 | 0.00 | 0.00 | 71 | 1019.3 |
| 20260830092031 | 55 | 234 | 3.0 | 9.0 | 0.00 | 0.00 | 0.00 | 71 | 1019.3 |
| 20260830091536 | 55 | 246 | 4.0 | 11.0 | 0.00 | 0.00 | 0.00 | 71 | 1019.2 |
| 20260830091027 | 55 | 267 | 5.0 | 11.0 | 0.00 | 0.00 | 0.00 | 70 | 1019.3 |
| 20260830090526 | 56 | 247 | 2.0 | 11.0 | 0.00 | 0.00 | 0.00 | 70 | 1019.2 |
| 20260830090025 | 56 | 241 | 6.0 | 10.0 | 0.00 | 0.00 | 0.00 | 71 | 1019.2 |
| 20260830085528 | 55 | 249 | 3.0 | 11.0 | 0.00 | 0.00 | 0.00 | 71 | 1019.2 |
| 20260830085024 | 55 | 250 | 4.0 | 9.0 | 0.00 | 0.00 | 0.00 | 71 | 1019.2 |
| 20260830084537 | 55 | 217 | 2.0 | 6.0 | 0.00 | 0.00 | 0.00 | 70 | 1019.2 |
| 20260830084022 | 56 | 217 | 3.0 | 10.0 | 0.00 | 0.00 | 0.00 | 68 | 1019.2 |
| 20260830083523 | 56 | 226 | 4.0 | 10.0 | 0.00 | 0.00 | 0.00 | 68 | 1019.2 |
| 20260830083019 | 56 | 223 | 6.0 | 12.0 | 0.00 | 0.00 | 0.00 | 67 | 1019.2 |
| 20260830082518 | 57 | 224 | 4.0 | 14.0 | 0.00 | 0.00 | 0.00 | 64 | 1019.2 |
| 20260830082016 | 57 | 236 | 6.0 | 14.0 | 0.00 | 0.00 | 0.00 | 63 | 1019.2 |
| 20260830081515 | 57 | 232 | 6.0 | 9.0 | 0.00 | 0.00 | 0.00 | 60 | 1019.2 |
| 20260830081015 | 58 | 227 | 2.0 | 5.0 | 0.00 | 0.00 | 0.00 | 59 | 1019.2 |
| 20260830080515 | 58 | 233 | 2.0 | 8.0 | 0.00 | 0.00 | 0.00 | 59 | 1019.2 |
| 20260830080015 | 58 | 219 | 5.0 | 8.0 | 0.00 | 0.00 | 0.00 | 59 | 1019.2 |
| 20260830075515 | 57 | 245 | 3.0 | 6.0 | 0.00 | 0.00 | 0.00 | 59 | 1019.2 |
| 20260830075014 | 56 | 245 | 0.0 | 6.0 | 0.00 | 0.00 | 0.00 | 59 | 1019.2 |
| 20260830074513 | 57 | 263 | 0.0 | 2.0 | 0.00 | 0.00 | 0.00 | 59 | 1019.2 |
| 20260830074011 | 58 | 191 | 0.0 | 9.0 | 0.00 | 0.00 | 0.00 | 57 | 1019.2 |
| 20260830073511 | 58 | 191 | 0.0 | 9.0 | 0.00 | 0.00 | 0.00 | 57 | 1019.2 |
| 20260830073010 | 58 | 321 | 0.0 | 4.0 | 0.00 | 0.00 | 0.00 | 57 | 1019.1 |
| 20260830072509 | 58 | 264 | 0.0 | 4.0 | 0.00 | 0.00 | 0.00 | 56 | 1019.1 |
| 20260830072009 | 58 | 191 | 0.0 | 3.0 | 0.00 | 0.00 | 0.00 | 56 | 1019.1 |
| 20260830071509 | 58 | 191 | 0.0 | 7.0 | 0.00 | 0.00 | 0.00 | 56 | 1019.1 |
| 20260830071008 | 58 | 258 | 1.0 | 7.0 | 0.00 | 0.00 | 0.00 | 56 | 1019.0 |
| 20260830070509 | 58 | 358 | 0.0 | 4.0 | 0.00 | 0.00 | 0.00 | 55 | 1019.0 |
| 20260830070006 | 58 | 348 | 0.0 | 2.0 | 0.00 | 0.00 | 0.00 | 55 | 1019.0 |
| 20260830065510 | 58 | 346 | 0.0 | 5.0 | 0.00 | 0.00 | 0.00 | 55 | 1019.0 |
| 20260830065007 | 58 | 345 | 1.0 | 5.0 | 0.00 | 0.00 | 0.00 | 55 | 1019.0 |
| 20260830064506 | 58 | 325 | 0.0 | 3.0 | 0.00 | 0.00 | 0.00 | 55 | 1019.0 |
| 20260830064007 | 59 | 200 | 0.0 | 4.0 | 0.00 | 0.00 | 0.00 | 54 | 1018.9 |
| 20260830063507 | 59 | 356 | 1.0 | 4.0 | 0.00 | 0.00 | 0.00 | 54 | 1018.9 |
| 20260830063005 | 59 | 360 | 0.0 | 4.0 | 0.00 | 0.00 | 0.00 | 54 | 1018.9 |
| 20260830062505 | 59 | 360 | 1.0 | 7.0 | 0.00 | 0.00 | 0.00 | 54 | 1019.0 |
| 20260830062007 | 59 | 356 | 1.0 | 7.0 | 0.00 | 0.00 | 0.00 | 53 | 1019.0 |
| 20260830061505 | 59 | 4 | 2.0 | 6.0 | 0.00 | 0.00 | 0.00 | 53 | 1019.0 |
| 20260830061005 | 59 | 356 | 2.0 | 5.0 | 0.00 | 0.00 | 0.00 | 53 | 1019.0 |
| 20260830060505 | 59 | 337 | 1.0 | 5.0 | 0.00 | 0.00 | 0.00 | 53 | 1019.0 |
| 20260830060004 | 59 | 348 | 2.0 | 6.0 | 0.00 | 0.00 | 0.00 | 52 | 1019.1 |
| 20260830055505 | 60 | 344 | 1.0 | 6.0 | 0.00 | 0.00 | 0.00 | 52 | 1019.1 |
| 20260830055005 | 60 | 6 | 2.0 | 6.0 | 0.00 | 0.00 | 0.00 | 52 | 1019.1 |
| 20260830054505 | 60 | 355 | 1.0 | 6.0 | 0.00 | 0.00 | 0.00 | 51 | 1019.1 |
| 20260830054004 | 60 | 346 | 1.0 | 7.0 | 0.00 | 0.00 | 0.00 | 51 | 1019.1 |
| 20260830053503 | 60 | 342 | 3.0 | 7.0 | 0.00 | 0.00 | 0.00 | 51 | 1019.2 |
| 20260830053005 | 60 | 346 | 0.0 | 7.0 | 0.00 | 0.00 | 0.00 | 51 | 1019.1 |
| 20260830052504 | 60 | 2 | 3.0 | 7.0 | 0.00 | 0.00 | 0.00 | 51 | 1019.1 |
| 20260830052004 | 60 | 13 | 3.0 | 7.0 | 0.00 | 0.00 | 0.00 | 51 | 1019.1 |
| 20260830051503 | 60 | 347 | 3.0 | 10.0 | 0.00 | 0.00 | 0.00 | 52 | 1019.1 |
| 20260830051003 | 60 | 350 | 2.0 | 10.0 | 0.00 | 0.00 | 0.00 | 53 | 1019.1 |
| 20260830050503 | 59 | 191 | 0.0 | 2.0 | 0.00 | 0.00 | 0.00 | 53 | 1019.1 |
| 20260830050002 | 59 | 280 | 0.0 | 1.0 | 0.00 | 0.00 | 0.00 | 53 | 1019.0 |
| 20260830045502 | 60 | 280 | 0.0 | 2.0 | 0.00 | 0.00 | 0.00 | 52 | 1019.0 |
| 20260830045001 | 60 | 280 | 0.0 | 2.0 | 0.00 | 0.00 | 0.00 | 51 | 1019.0 |
| 20260830044601 | 60 | 279 | 0.0 | 2.0 | 0.00 | 0.00 | 0.00 | 50 | 1018.9 |
| 20260830044100 | 61 | 279 | 0.0 | 4.0 | 0.00 | 0.00 | 0.00 | 49 | 1018.9 |
| 20260830043559 | 61 | 275 | 0.0 | 7.0 | 0.00 | 0.00 | 0.00 | 49 | 1018.8 |
| 20260830043123 | 61 | 263 | 2.0 | 7.0 | 0.00 | 0.00 | 0.00 | 49 | 1018.9 |
| 20260830042600 | 61 | 271 | 2.0 | 11.0 | 0.00 | 0.00 | 0.00 | 48 | 1018.8 |
| 20260830042058 | 61 | 269 | 3.0 | 11.0 | 0.00 | 0.00 | 0.00 | 49 | 1018.7 |
| 20260830041557 | 61 | 269 | 1.0 | 4.0 | 0.00 | 0.00 | 0.00 | 49 | 1018.6 |
| 20260830041056 | 61 | 191 | 0.0 | 7.0 | 0.00 | 0.00 | 0.00 | 48 | 1018.5 |
| 20260830040556 | 61 | 191 | 0.0 | 5.0 | 0.00 | 0.00 | 0.00 | 47 | 1018.4 |
| 20260830040110 | 62 | 280 | 1.0 | 10.0 | 0.00 | 0.00 | 0.00 | 47 | 1018.3 |
| 20260830035556 | 62 | 254 | 1.0 | 13.0 | 0.00 | 0.00 | 0.00 | 47 | 1018.3 |
| 20260830035056 | 62 | 252 | 3.0 | 13.0 | 0.00 | 0.00 | 0.00 | 48 | 1018.2 |
| 20260830034556 | 62 | 252 | 5.0 | 12.0 | 0.00 | 0.00 | 0.00 | 47 | 1018.1 |
| 20260830034055 | 62 | 241 | 4.0 | 12.0 | 0.00 | 0.00 | 0.00 | 47 | 1018.1 |
| 20260830033559 | 62 | 254 | 4.0 | 11.0 | 0.00 | 0.00 | 0.00 | 48 | 1018.1 |
| 20260830033058 | 62 | 240 | 6.0 | 11.0 | 0.00 | 0.00 | 0.00 | 47 | 1018.0 |
| 20260830032555 | 62 | 256 | 2.0 | 6.0 | 0.00 | 0.00 | 0.00 | 47 | 1018.1 |
| 20260830032055 | 63 | 252 | 2.0 | 5.0 | 0.00 | 0.00 | 0.00 | 46 | 1018.0 |
| 20260830031555 | 63 | 191 | 0.0 | 5.0 | 0.00 | 0.00 | 0.00 | 47 | 1018.0 |
| 20260830031055 | 62 | 341 | 0.0 | 4.0 | 0.00 | 0.00 | 0.00 | 48 | 1018.0 |
| 20260830030555 | 62 | 358 | 0.0 | 4.0 | 0.00 | 0.00 | 0.00 | 48 | 1017.9 |
| 20260830030055 | 62 | 350 | 1.0 | 4.0 | 0.00 | 0.00 | 0.00 | 49 | 1017.9 |
| 20260830025554 | 61 | 360 | 0.0 | 4.0 | 0.00 | 0.00 | 0.00 | 50 | 1017.8 |
| 20260830025054 | 62 | 267 | 0.0 | 4.0 | 0.00 | 0.00 | 0.00 | 50 | 1017.8 |
| 20260830024554 | 62 | 267 | 0.0 | 4.0 | 0.00 | 0.00 | 0.00 | 50 | 1017.8 |
| 20260830024057 | 62 | 191 | 0.0 | 3.0 | 0.00 | 0.00 | 0.00 | 49 | 1017.8 |
| 20260830023555 | 62 | 357 | 0.0 | 3.0 | 0.00 | 0.00 | 0.00 | 49 | 1017.7 |
| 20260830023112 | 62 | 327 | 0.0 | 3.0 | 0.00 | 0.00 | 0.00 | 48 | 1017.7 |
| 20260830022554 | 63 | 191 | 0.0 | 2.0 | 0.00 | 0.00 | 0.00 | 48 | 1017.7 |
| 20260830022054 | 63 | 315 | 0.0 | 2.0 | 0.00 | 0.00 | 0.00 | 48 | 1017.7 |
| 20260830021555 | 63 | 315 | 0.0 | 5.0 | 0.00 | 0.00 | 0.00 | 47 | 1017.7 |
| 20260830021053 | 64 | 278 | 0.0 | 5.0 | 0.00 | 0.00 | 0.00 | 47 | 1017.7 |
| 20260830020555 | 64 | 323 | 0.0 | 6.0 | 0.00 | 0.00 | 0.00 | 45 | 1017.7 |
| 20260830020053 | 65 | 335 | 1.0 | 12.0 | 0.00 | 0.00 | 0.00 | 44 | 1017.9 |
| 20260830015553 | 65 | 326 | 0.0 | 8.0 | 0.00 | 0.00 | 0.00 | 44 | 1017.9 |
| 20260830015053 | 65 | 348 | 1.0 | 17.0 | 0.00 | 0.00 | 0.00 | 44 | 1017.9 |
| 20260830014553 | 65 | 350 | 7.0 | 17.0 | 0.00 | 0.00 | 0.00 | 43 | 1017.8 |